sat.trackr.live / text

‹ back to catalog

STARLINK-4112

NORAD 52861 · 2022-062AH

PAYLOAD ACTIVE UNKNOWN

§ Identity

Operator
Country
US
Launch date
2022-06-17
Launch site
AFETR
Launch vehicle
Mass (kg)
RCS (m²)

Purposes: comms

External: N2YO · Heavens-Above · Gunter

§ Orbital elements

Epoch: 2026-09-20T04:09:33.545088Z

Period
94.01 min
Inclination
53.1597°
Eccentricity
0.0001294
Mean motion
15.31700267 rev/d
Perigee alt
469.9 km
Apogee alt
471.6 km
Semi-major
6,848.9 km
B*
1.8301e-5
RAAN
215.3275°
Arg perigee
89.4921°
Mean anomaly
270.6228°
Rev number
23,550

§ Raw data

STARLINK-41121 52861U 22062AH  26263.17330492  .00000203  00000+0  18301-4 0  99932 52861  53.1597 215.3275 0001294  89.4921 270.6228 15.31700267235502

JSON: /api/v1/satellites/52861 · /tle

For live sub-satellite position, see the globe view (requires WebGL).

§ Visibility from observer

Set your observer location to see the next 7 days of passes ≥ 10°. The values pass through the URL so the page stays shareable.

No JS? Fill the form by hand. The geolocation button needs JavaScript.